Windsor, Ontario

12:23 AM EST on November 19, 2017 (GMT -0500)
Windsor

Weather History for CYQG - March, 2014

Change the Weather History Date:

Monday, March 3, 2014

  Actual Average Record
Temperature  
Mean Temperature 4 °F -  
Max Temperature 9 °F 44 °F 57 °F (2008)
Min Temperature 0 °F 28 °F -2 °F (2003)
Degree Days  
Heating Degree Days 60    
Moisture  
Dew Point -6 °F    
Average Humidity 59    
Maximum Humidity 85    
Minimum Humidity 38    
Precipitation  
Precipitation 0.00 in 0.10 in - ()
Sea Level Pressure  
Sea Level Pressure 30.46 in    
Wind  
Wind Speed 8 mph ()    
Max Wind Speed 16 mph    
Max Gust Speed -    
Visibility 15.0 miles    
Events      
Averages and records for this station are not official NWS values.
T = Trace of Precipitation, MM = Missing Value Source: Averaged Metar Reports

Daily Weather History Graph

Daily Weather History Graph

Search for Another Location

Airport or City:

Trip Planner

Search our weather history database for the weather conditions in past years. The results will help you decide how hot, cold, wet, or windy it might be!

Date:

Astronomy

Mar. 03, 2014 Rise Set
Actual Time 7:03 AM EST 6:24 PM EST
Civil Twilight 6:35 AM EST 6:52 PM EST
Nautical Twilight 6:03 AM EST 7:24 PM EST
Astronomical Twilight 5:30 AM EST 7:57 PM EST
Moon 8:08 AM EST (3/3) 9:30 PM EST (3/3)
Length of Visible Light 12h 16m
Length of Day
11h 20m
Waxing Crescent, 8% of the Moon is Illuminated
Mar 3
Waxing Crescent
Mar 8
First Quarter
Mar 16
Full
Mar 23
Last Quarter
Mar 30
New

Hourly Weather History & Observations

Time (EST) Temp. Windchill Dew Point Humidity Pressure Visibility Wind Dir Wind Speed Gust Speed Precip Events Conditions
12:00 AM 5.0 °F -4.1 °F 1.4 °F 85% 30.37 in 15.0 mi WSW 4.6 mph - N/A   Overcast
1:00 AM 10 °F - -1 °F 46% 30.38 in 15 mi NNW 13.8 mph - -   Overcast
1:00 AM 10.4 °F -4.8 °F -0.4 °F 62% 30.38 in 15.0 mi NNW 12.7 mph - N/A   Overcast
2:00 AM 6.8 °F -10.7 °F -4.0 °F 61% 30.40 in 15.0 mi North 15.0 mph - N/A   Overcast
3:00 AM 5.0 °F -10.0 °F -5.8 °F 61% 30.41 in 15.0 mi North 10.4 mph - N/A   Overcast
4:00 AM 3.2 °F -15.9 °F -7.6 °F 61% 30.39 in 15.0 mi NNE 16.1 mph - N/A   Overcast
5:00 AM 3.2 °F -13.1 °F -13.0 °F 47% 30.41 in 15.0 mi NNE 11.5 mph - N/A   Overcast
6:00 AM 1.4 °F -11.3 °F -13.0 °F 51% 30.44 in 15.0 mi North 6.9 mph - N/A   Scattered Clouds
7:00 AM 0 °F - -12 °F 41% 30.45 in 15 mi North 6.9 mph - -   Scattered Clouds
7:00 AM 1.4 °F -11.3 °F -11.2 °F 56% 30.45 in 15.0 mi North 6.9 mph - N/A   Partly Cloudy
8:00 AM 1.4 °F -13.5 °F -9.4 °F 61% 30.47 in 15.0 mi NNE 9.2 mph - N/A   Partly Cloudy
9:00 AM 3.2 °F -14.6 °F -7.6 °F 61% 30.50 in 15.0 mi NNE 13.8 mph - N/A   Scattered Clouds
10:00 AM 5.0 °F -11.6 °F -5.8 °F 61% 30.50 in 15.0 mi NE 12.7 mph - N/A   Mostly Cloudy
11:00 AM 5.0 °F -10.0 °F -5.8 °F 61% 30.51 in 15.0 mi ENE 10.4 mph - N/A   Partly Cloudy
12:00 PM 6.8 °F -3.5 °F -5.8 °F 56% 30.52 in 15.0 mi ENE 5.8 mph - N/A   Partly Cloudy
1:00 PM 8 °F - -6 °F 38% 30.51 in 15 mi East 5.8 mph - -   Scattered Clouds
1:00 PM 8.6 °F -2.6 °F -5.8 °F 52% 30.51 in 15.0 mi ENE 6.9 mph - N/A   Partly Cloudy
2:00 PM 8.6 °F -1.3 °F -4.0 °F 57% 30.51 in 15.0 mi SE 5.8 mph - N/A   Partly Cloudy
3:00 PM 8.6 °F -2.6 °F -4.0 °F 57% 30.50 in 15.0 mi South 6.9 mph - N/A   Partly Cloudy
4:00 PM 8.6 °F -1.3 °F -4.0 °F 57% 30.51 in 15.0 mi SSE 5.8 mph - N/A   Partly Cloudy
5:00 PM 8.6 °F -2.6 °F -4.0 °F 57% 30.51 in 15.0 mi South 6.9 mph - N/A   Partly Cloudy
6:00 PM 6.8 °F -5.9 °F -4.0 °F 61% 30.50 in 15.0 mi South 8.1 mph - N/A   Partly Cloudy
7:00 PM 6 °F - -5 °F 47% 30.50 in 15 mi SSW 6.9 mph - -   Clear
7:00 PM 6.8 °F -4.8 °F -4.0 °F 61% 30.50 in 15.0 mi SSW 6.9 mph - N/A   Partly Cloudy
8:00 PM 5.0 °F -5.6 °F -4.0 °F 66% 30.48 in 15.0 mi SSW 5.8 mph - N/A   Clear
9:00 PM 3.2 °F -10.3 °F -4.0 °F 72% 30.48 in 15.0 mi SW 8.1 mph - N/A   Partly Cloudy
10:00 PM 3.2 °F -6.2 °F -4.0 °F 72% 30.46 in 15.0 mi SSW 4.6 mph - N/A   Partly Cloudy
11:00 PM 1.4 °F -6.2 °F -4.0 °F 78% 30.46 in 15.0 mi SW 3.5 mph - N/A   Partly Cloudy